Regional Weather Roundup
Issued by NWS

Home | Current Version | Previous Version | Text Only | Print | Product List | Glossary Off
Versions: 1 2 3 4 5 6 7 8 9 10 11 12 13 14 15 16 17 18 19 20 21 22 23 24 25 26 27 28 29 30 31 32 33 34 35 36 37 38 39 40 41 42 43 44 45 46 47 48 49 50

000
ASUS43 KTOP 021059
RWRKS

WEATHER ROUNDUP FOR KANSAS
NATIONAL WEATHER SERVICE GOODLAND KS
500 AM CST MON MAR 02 2015

NOTE:  "FAIR" INDICATES FEW OR NO CLOUDS BELOW 12,000 FEET WITH NO
SIGNIFICANT WEATHER AND/OR OBSTRUCTIONS TO VISIBILITY.

KSZ001>006-013>018-027>032-041>047-021200-
NORTHWEST KANSAS

CITY           SKY/WX    TMP DP  RH WIND       PRES   REMARKS
GOODLAND       CLEAR     23  20  88 S8        30.23F
HAYS           PTCLDY    19  10  68 SE5       30.36F
HILL CITY      MOCLDY    28  21  75 SE3       30.34F
RUSSELL        FAIR      21  19  92 S7        30.38R
$$

KSZ061>065-074>080-084>089-021200-
SOUTHWEST KANSAS

CITY           SKY/WX    TMP DP  RH WIND       PRES   REMARKS
DODGE CITY     CLOUDY    21  17  84 S5        30.35R
ELKHART          N/A     22  19  89 S6          N/A
GARDEN CITY    CLOUDY    18  17  96 S5        30.32R
GREAT BEND     MOCLDY    19  12  73 S3        30.39S
LIBERAL        CLOUDY    23  18  80 SW6       30.33F
$$

KSZ066>073-081>083-090>101-021200-
SOUTHEAST KANSAS

CITY           SKY/WX    TMP DP  RH WIND       PRES   REMARKS
CHANUTE        MOCLDY    19  16  88 CALM      30.48R
COFFEYVILLE    PTCLDY    22  19  89 NE5       30.48S
HUTCHINSON     MOCLDY    20  16  84 CALM      30.42F
MEDICINE LODGE   N/A     20  18  92 CALM      30.41F
NEWTON         MOCLDY    21  16  79 SE5       30.44S
PARSONS        MOCLDY    22  19  89 NE3       30.48S
WICHITA INTL   CLOUDY    22  18  85 NE6       30.43F FOG
WICHITA JABRA  CLOUDY    19  16  88 CALM      30.43F
WINFIELD       MOCLDY    19  17  92 NE5       30.45F
$$

KSZ007>012-019>026-033>040-048>060-102>105-021200-
NORTHEAST KANSAS

CITY           SKY/WX    TMP DP  RH WIND       PRES   REMARKS
CONCORDIA      CLOUDY    29  22  75 CALM      30.40F
EMPORIA        MOCLDY    19  16  88 CALM      30.44F
LAWRENCE       PTCLDY    18  15  88 CALM      30.49F
MANHATTAN      PTCLDY    20  18  92 CALM      30.46F
OLATHE IND     PTCLDY    18  16  92 CALM      30.49R
OLATHE EXE     PTCLDY    19  17  92 CALM      30.47S
SALINA         MOCLDY    22  18  85 SE5       30.43F
TOPEKA BILLARD PTCLDY    20  17  88 CALM      30.49S
TOPEKA FORBES  PTCLDY    19  15  84 S3        30.47R
$$



USA.gov is the U.S. government's official web portal to all federal, state and local government web resources and services.